星链-31227 (STARLINK-31227 )

导读

STARLINK-31227是美国太空探索技术公司(SpaceX)星链互联网星座的一员,于2024年2月25日发射升空。星链项目旨在构建全球卫星互联网,该卫星承担低轨宽带通信服务分发任务,和其他星链卫星协同,为全球偏远地区、海洋空域提供互联网接入,补充地面网络覆盖盲区。

基本信息
目录编号:
59026
目录名称:
STARLINK-31227
国际标识:
2024-038D
轨道中心:
EARTH
卫星名称:
星链-31227
卫星全名:
星链-31227 (STARLINK-31227 )
卫星状态:
已陨落 最后检测时间 2026-01-28
发射日期:
2024-02-25 UTC
国别 :
美国 (US)
星等 :
--
轨道信息
数据来源 国际轨道数据
星历时间: 2026-01-28T07:01:41+0800
轨道信息已过期141天
半长轴: 6592.122km
偏心率: 0.0005787
轨道倾角: 42.991°
近地点辐角 256.803°
升交点赤经 245.181°
平近点角 103.221°
近地点: 210.17km
远地点: 217.8km
周期: 88.776分钟
每日圈数: 16.220528
详细信息
固有亮度:
5
最大亮度:
0.3
卫星平台:
Starlink v2.0 mini
覆盖范围:
全球
运营商:
太空探索技术公司
运营商所在国:
美国
制造商(研发单位):
太空探索技术公司
制造商所在国:
美国
使用方式:
暂无
卫星简介
星链(Starlink)计划是由太空探索技术公司(SpaceX)提出的一个巨型低轨卫星互联网星座项目,计划在2019年至2024年间在太空搭建由约1.2万颗卫星组成的“星链”网络,其中1584颗将部署在地球上空550千米处的近地轨道,并从2020年开始工作。该卫星仍在工作。